Location: Amherst
(42.3800°N, 72.5240°W)
Time: 02:17:39
(UTC-04:00)

ISS - Pass Details

Date: 21 May 2021
Orbit: 417 x 422 km, 51.6° (Epoch: 18 June)

Event Time Altitude Azimuth Distance (km) Brightness Sun altitude
Rises 22:21:02 0° 297° (WNW) 2,366 1.2 -18.8°
Reaches altitude 10° 22:23:40 10° 319° (NW) 1,503 0.3 -19.1°
Maximum altitude 22:25:57 17° 2° (N) 1,159 -0.9 -19.3°
Drops below altitude 10° 22:28:14 10° 44° (NE) 1,505 -0.8 -19.5°
Enters shadow 22:29:49 - 60° (ENE) 1,993 -0.4 -19.7°
